date,time,SUV Intensity [MED/Hr],UV Index,Daily total [MED],Since Last [MED]
04/05/2022,00:07:48,0.001,0.0,0.0,0.0
04/05/2022,00:08:39,0.000,0.0,0.0,0.0
04/05/2022,00:09:40,0.000,0.0,0.0,0.0
04/05/2022,00:10:48,-0.000,0.0,0.0,0.0
04/05/2022,00:11:39,-0.000,0.0,0.0,0.0
04/05/2022,00:12:40,0.000,0.0,0.0,0.0
04/05/2022,00:13:40,0.000,0.0,0.0,0.0
04/05/2022,00:14:40,-0.000,0.0,0.0,0.0
04/05/2022,00:15:40,0.000,0.0,0.0,0.0
04/05/2022,00:16:40,0.000,0.0,0.0,0.0
04/05/2022,00:17:39,0.000,0.0,0.0,0.0
04/05/2022,00:18:40,0.000,0.0,0.0,0.0
04/05/2022,00:19:40,-0.001,0.0,0.0,0.0
04/05/2022,00:20:48,0.000,0.0,0.0,0.0
04/05/2022,00:22:40,-0.000,0.0,0.0,0.0
04/05/2022,00:23:40,0.000,0.0,0.0,0.0
04/05/2022,00:24:40,-0.001,0.0,0.0,0.0
04/05/2022,00:25:40,0.001,0.0,0.0,0.0
04/05/2022,00:26:40,0.001,0.0,0.0,0.0
04/05/2022,00:27:39,-0.001,0.0,0.0,0.0
04/05/2022,00:28:40,-0.001,0.0,0.0,0.0
04/05/2022,00:29:39,0.001,0.0,0.0,0.0
04/05/2022,00:30:39,0.000,0.0,0.0,0.0
04/05/2022,00:31:40,0.000,0.0,0.0,0.0
04/05/2022,00:32:40,0.001,0.0,0.0,0.0
04/05/2022,00:33:48,-0.000,0.0,0.0,0.0
04/05/2022,00:34:39,0.001,0.0,0.0,0.0
04/05/2022,00:35:41,0.000,0.0,0.0,0.0
04/05/2022,00:36:39,-0.001,0.0,0.0,0.0
04/05/2022,00:37:39,-0.000,0.0,0.0,0.0
04/05/2022,00:38:40,-0.001,0.0,0.0,0.0
04/05/2022,00:39:40,0.000,0.0,0.0,0.0
04/05/2022,00:40:39,0.001,0.0,0.0,0.0
04/05/2022,00:41:40,0.000,0.0,0.0,0.0
04/05/2022,00:42:39,0.000,0.0,0.0,0.0
04/05/2022,00:43:40,0.000,0.0,0.0,0.0
04/05/2022,00:44:39,0.001,0.0,0.0,0.0
04/05/2022,00:45:39,0.001,0.0,0.0,0.0
04/05/2022,00:46:40,0.000,0.0,0.0,0.0
04/05/2022,00:47:40,0.000,0.0,0.0,0.0
04/05/2022,00:48:40,0.000,0.0,0.0,0.0
04/05/2022,00:49:39,0.000,0.0,0.0,0.0
04/05/2022,00:50:40,-0.000,0.0,0.0,0.0
04/05/2022,00:51:40,0.001,0.0,0.0,0.0
04/05/2022,00:52:40,0.000,0.0,0.0,0.0
04/05/2022,00:53:40,0.000,0.0,0.0,0.0
04/05/2022,00:54:40,0.000,0.0,0.0,0.0
04/05/2022,00:55:39,0.000,0.0,0.0,0.0
04/05/2022,00:56:39,0.000,0.0,0.0,0.0
04/05/2022,00:57:39,0.001,0.0,0.0,0.0
04/05/2022,00:58:40,-0.000,0.0,0.0,0.0
04/05/2022,00:59:40,0.001,0.0,0.0,0.0
04/05/2022,01:00:40,0.000,0.0,0.0,0.0
04/05/2022,01:01:40,-0.001,0.0,0.0,0.0
04/05/2022,01:02:40,-0.000,0.0,0.0,0.0
04/05/2022,01:03:39,0.001,0.0,0.0,0.0
04/05/2022,01:04:48,0.000,0.0,0.0,0.0
04/05/2022,01:05:39,0.000,0.0,0.0,0.0
04/05/2022,01:06:39,-0.000,0.0,0.0,0.0
04/05/2022,01:07:47,0.000,0.0,0.0,0.0
04/05/2022,01:08:39,0.001,0.0,0.0,0.0
04/05/2022,01:09:40,0.001,0.0,0.0,0.0
04/05/2022,01:10:40,0.001,0.0,0.0,0.0
04/05/2022,01:11:40,0.000,0.0,0.0,0.0
04/05/2022,01:12:31,0.000,0.0,0.0,0.0
04/05/2022,01:13:42,0.000,0.0,0.0,0.0
04/05/2022,01:14:48,-0.001,0.0,0.0,0.0
04/05/2022,01:15:40,0.000,0.0,0.0,0.0
04/05/2022,01:16:40,0.000,0.0,0.0,0.0
04/05/2022,01:17:40,-0.001,0.0,0.0,0.0
04/05/2022,01:18:30,0.000,0.0,0.0,0.0
04/05/2022,01:19:41,0.000,0.0,0.0,0.0
04/05/2022,01:20:39,0.001,0.0,0.0,0.0
04/05/2022,01:21:39,-0.001,0.0,0.0,0.0
04/05/2022,01:22:40,0.000,0.0,0.0,0.0
04/05/2022,01:23:40,0.000,0.0,0.0,0.0
04/05/2022,01:24:48,0.000,0.0,0.0,0.0
04/05/2022,01:25:40,0.000,0.0,0.0,0.0
04/05/2022,01:26:40,-0.000,0.0,0.0,0.0
04/05/2022,01:27:39,0.002,0.0,0.0,0.0
04/05/2022,01:28:39,0.000,0.0,0.0,0.0
04/05/2022,01:29:40,0.000,0.0,0.0,0.0
04/05/2022,01:30:39,0.000,0.0,0.0,0.0
04/05/2022,01:31:40,0.000,0.0,0.0,0.0
04/05/2022,01:32:39,0.000,0.0,0.0,0.0
04/05/2022,01:33:40,0.001,0.0,0.0,0.0
04/05/2022,01:34:48,-0.001,0.0,0.0,0.0
04/05/2022,01:35:40,0.001,0.0,0.0,0.0
04/05/2022,01:36:40,0.001,0.0,0.0,0.0
04/05/2022,01:37:40,-0.001,0.0,0.0,0.0
04/05/2022,01:38:40,0.000,0.0,0.0,0.0
04/05/2022,01:39:40,0.001,0.0,0.0,0.0
04/05/2022,01:40:40,0.000,0.0,0.0,0.0
04/05/2022,01:41:39,0.000,0.0,0.0,0.0
04/05/2022,01:42:40,0.000,0.0,0.0,0.0
04/05/2022,01:43:40,0.000,0.0,0.0,0.0
04/05/2022,01:44:40,0.001,0.0,0.0,0.0
04/05/2022,01:45:39,0.000,0.0,0.0,0.0
04/05/2022,01:46:40,0.000,0.0,0.0,0.0
04/05/2022,01:47:39,0.001,0.0,0.0,0.0
04/05/2022,01:48:40,0.000,0.0,0.0,0.0
04/05/2022,01:49:39,0.000,0.0,0.0,0.0
04/05/2022,01:50:39,0.000,0.0,0.0,0.0
04/05/2022,01:51:40,0.000,0.0,0.0,0.0
04/05/2022,01:52:52,0.001,0.0,0.0,0.0
04/05/2022,01:54:40,-0.001,0.0,0.0,0.0
04/05/2022,01:55:39,0.000,0.0,0.0,0.0
04/05/2022,01:56:40,0.001,0.0,0.0,0.0
04/05/2022,01:57:39,0.000,0.0,0.0,0.0
04/05/2022,01:58:40,0.000,0.0,0.0,0.0
04/05/2022,01:59:40,0.000,0.0,0.0,0.0
04/05/2022,02:00:40,-0.001,0.0,0.0,0.0
04/05/2022,02:01:40,0.000,0.0,0.0,0.0
04/05/2022,02:02:40,0.001,0.0,0.0,0.0
04/05/2022,02:03:40,-0.000,0.0,0.0,0.0
04/05/2022,02:04:40,0.000,0.0,0.0,0.0
04/05/2022,02:05:48,-0.001,0.0,0.0,0.0
04/05/2022,02:07:40,0.000,0.0,0.0,0.0
04/05/2022,02:08:48,0.000,0.0,0.0,0.0
04/05/2022,02:09:39,-0.001,0.0,0.0,0.0
04/05/2022,02:10:40,0.001,0.0,0.0,0.0
04/05/2022,02:11:40,0.001,0.0,0.0,0.0
04/05/2022,02:12:40,0.000,0.0,0.0,0.0
04/05/2022,02:13:40,-0.001,0.0,0.0,0.0
04/05/2022,02:14:40,0.000,0.0,0.0,0.0
04/05/2022,02:15:39,0.000,0.0,0.0,0.0
04/05/2022,02:16:40,-0.001,0.0,0.0,0.0
04/05/2022,02:17:40,0.000,0.0,0.0,0.0
04/05/2022,02:18:48,0.000,0.0,0.0,0.0
04/05/2022,02:19:39,0.000,0.0,0.0,0.0
04/05/2022,02:20:39,-0.000,0.0,0.0,0.0
04/05/2022,02:21:40,0.000,0.0,0.0,0.0
04/05/2022,02:22:40,0.000,0.0,0.0,0.0
04/05/2022,02:23:40,0.000,0.0,0.0,0.0
04/05/2022,02:24:40,0.000,0.0,0.0,0.0
04/05/2022,02:25:40,0.001,0.0,0.0,0.0
04/05/2022,02:26:40,0.000,0.0,0.0,0.0
04/05/2022,02:27:40,-0.001,0.0,0.0,0.0
04/05/2022,02:28:48,0.001,0.0,0.0,0.0
04/05/2022,02:29:40,0.000,0.0,0.0,0.0
04/05/2022,02:30:40,0.000,0.0,0.0,0.0
04/05/2022,02:31:40,0.001,0.0,0.0,0.0
04/05/2022,02:32:40,0.000,0.0,0.0,0.0
04/05/2022,02:33:40,-0.001,0.0,0.0,0.0
04/05/2022,02:34:40,0.000,0.0,0.0,0.0
04/05/2022,02:35:40,0.000,0.0,0.0,0.0
04/05/2022,02:36:40,0.000,0.0,0.0,0.0
04/05/2022,02:37:41,-0.001,0.0,0.0,0.0
04/05/2022,02:38:40,0.000,0.0,0.0,0.0
04/05/2022,02:39:40,-0.000,0.0,0.0,0.0
04/05/2022,02:40:40,0.000,0.0,0.0,0.0
04/05/2022,02:41:40,0.000,0.0,0.0,0.0
04/05/2022,02:42:40,0.000,0.0,0.0,0.0
04/05/2022,02:43:39,-0.001,0.0,0.0,0.0
04/05/2022,02:44:39,-0.001,0.0,0.0,0.0
04/05/2022,02:45:40,0.000,0.0,0.0,0.0
04/05/2022,02:46:39,0.000,0.0,0.0,0.0
04/05/2022,02:47:40,0.000,0.0,0.0,0.0
04/05/2022,02:48:40,0.000,0.0,0.0,0.0
04/05/2022,02:49:40,0.000,0.0,0.0,0.0
04/05/2022,02:50:40,0.000,0.0,0.0,0.0
04/05/2022,02:51:40,-0.001,0.0,0.0,0.0
04/05/2022,02:52:49,0.000,0.0,0.0,0.0
04/05/2022,02:54:41,-0.000,0.0,0.0,0.0
04/05/2022,02:55:40,0.000,0.0,0.0,0.0
04/05/2022,02:56:40,-0.000,0.0,0.0,0.0
04/05/2022,02:57:40,-0.000,0.0,0.0,0.0
04/05/2022,02:58:40,-0.000,0.0,0.0,0.0
04/05/2022,02:59:40,0.001,0.0,0.0,0.0
04/05/2022,03:00:39,0.000,0.0,0.0,0.0
04/05/2022,03:01:40,0.000,0.0,0.0,0.0
04/05/2022,03:02:56,0.000,0.0,0.0,0.0
04/05/2022,03:04:40,-0.000,0.0,0.0,0.0
04/05/2022,03:05:40,0.000,0.0,0.0,0.0
04/05/2022,03:06:41,0.001,0.0,0.0,0.0
04/05/2022,03:07:40,0.000,0.0,0.0,0.0
04/05/2022,03:08:39,0.001,0.0,0.0,0.0
04/05/2022,03:09:39,0.000,0.0,0.0,0.0
04/05/2022,03:10:40,-0.001,0.0,0.0,0.0
04/05/2022,03:11:40,0.001,0.0,0.0,0.0
04/05/2022,03:12:48,0.000,0.0,0.0,0.0
04/05/2022,03:14:41,-0.000,0.0,0.0,0.0
04/05/2022,03:15:47,0.000,0.0,0.0,0.0
04/05/2022,03:16:39,-0.001,0.0,0.0,0.0
04/05/2022,03:17:40,-0.001,0.0,0.0,0.0
04/05/2022,03:18:40,0.000,0.0,0.0,0.0
04/05/2022,03:19:49,-0.001,0.0,0.0,0.0
04/05/2022,03:20:40,-0.001,0.0,0.0,0.0
04/05/2022,03:21:40,0.001,0.0,0.0,0.0
04/05/2022,03:22:39,-0.000,0.0,0.0,0.0
04/05/2022,03:23:40,-0.001,0.0,0.0,0.0
04/05/2022,03:24:41,0.001,0.0,0.0,0.0
04/05/2022,03:25:40,0.001,0.0,0.0,0.0
04/05/2022,03:26:40,0.000,0.0,0.0,0.0
04/05/2022,03:27:40,0.001,0.0,0.0,0.0
04/05/2022,03:28:42,0.000,0.0,0.0,0.0
04/05/2022,03:29:49,0.000,0.0,0.0,0.0
04/05/2022,03:31:40,0.000,0.0,0.0,0.0
04/05/2022,03:32:40,0.000,0.0,0.0,0.0
04/05/2022,03:33:39,0.000,0.0,0.0,0.0
04/05/2022,03:34:40,0.001,0.0,0.0,0.0
04/05/2022,03:35:40,0.000,0.0,0.0,0.0
04/05/2022,03:36:40,-0.000,0.0,0.0,0.0
04/05/2022,03:37:40,-0.001,0.0,0.0,0.0
04/05/2022,03:38:40,0.000,0.0,0.0,0.0
04/05/2022,03:40:01,0.001,0.0,0.0,0.0
04/05/2022,03:41:49,0.001,0.0,0.0,0.0
04/05/2022,03:43:41,0.000,0.0,0.0,0.0
04/05/2022,03:44:40,0.002,0.0,0.0,0.0
04/05/2022,03:45:40,-0.001,0.0,0.0,0.0
04/05/2022,03:46:40,0.000,0.0,0.0,0.0
04/05/2022,03:47:49,0.000,0.0,0.0,0.0
04/05/2022,03:48:40,0.000,0.0,0.0,0.0
04/05/2022,03:49:40,-0.001,0.0,0.0,0.0
04/05/2022,03:50:40,-0.000,0.0,0.0,0.0
04/05/2022,03:51:40,0.002,0.0,0.0,0.0
04/05/2022,03:52:40,0.000,0.0,0.0,0.0
04/05/2022,03:53:40,0.000,0.0,0.0,0.0
04/05/2022,03:54:40,0.000,0.0,0.0,0.0
04/05/2022,03:55:40,0.000,0.0,0.0,0.0
04/05/2022,03:56:40,0.000,0.0,0.0,0.0
04/05/2022,03:57:27,0.000,0.0,0.0,0.0
04/05/2022,03:58:40,0.000,0.0,0.0,0.0
04/05/2022,03:59:40,-0.001,0.0,0.0,0.0
04/05/2022,04:00:48,-0.000,0.0,0.0,0.0
04/05/2022,04:02:40,0.000,0.0,0.0,0.0
04/05/2022,04:03:40,0.000,0.0,0.0,0.0
04/05/2022,04:04:40,0.000,0.0,0.0,0.0
04/05/2022,04:05:40,0.000,0.0,0.0,0.0
04/05/2022,04:06:40,0.000,0.0,0.0,0.0
04/05/2022,04:07:40,0.000,0.0,0.0,0.0
04/05/2022,04:08:40,0.000,0.0,0.0,0.0
04/05/2022,04:09:40,0.000,0.0,0.0,0.0
04/05/2022,04:10:40,0.001,0.0,0.0,0.0
04/05/2022,04:11:40,0.000,0.0,0.0,0.0
04/05/2022,04:12:40,0.000,0.0,0.0,0.0
04/05/2022,04:13:48,0.000,0.0,0.0,0.0
04/05/2022,04:15:49,0.001,0.0,0.0,0.0
04/05/2022,04:17:49,0.001,0.0,0.0,0.0
04/05/2022,04:19:42,0.001,0.0,0.0,0.0
04/05/2022,04:20:40,0.000,0.0,0.0,0.0
04/05/2022,04:21:40,0.002,0.0,0.0,0.0
04/05/2022,04:22:40,0.001,0.0,0.0,0.0
04/05/2022,04:23:40,0.002,0.0,0.0,0.0
04/05/2022,04:24:40,0.001,0.0,0.0,0.0
04/05/2022,04:25:41,0.002,0.0,0.0,0.0
04/05/2022,04:26:42,0.001,0.0,0.0,0.0
04/05/2022,04:27:40,0.000,0.0,0.0,0.0
04/05/2022,04:28:40,0.002,0.0,0.0,0.0
04/05/2022,04:29:40,0.001,0.0,0.0,0.0
04/05/2022,04:30:40,0.000,0.0,0.0,0.0
04/05/2022,04:31:48,0.001,0.0,0.0,0.0
04/05/2022,04:33:57,0.001,0.0,0.0,0.0
04/05/2022,04:35:49,0.002,0.0,0.0,0.0
04/05/2022,04:37:41,0.002,0.0,0.0,0.0
04/05/2022,04:38:40,0.002,0.0,0.0,0.0
04/05/2022,04:39:40,0.001,0.0,0.0,0.0
04/05/2022,04:40:40,0.002,0.0,0.0,0.0
04/05/2022,04:41:40,0.003,0.0,0.0,0.0
04/05/2022,04:42:40,0.002,0.0,0.0,0.0
04/05/2022,04:43:41,0.002,0.0,0.0,0.0
04/05/2022,04:44:48,0.003,0.0,0.0,0.0
04/05/2022,04:46:49,0.003,0.0,0.0,0.0
04/05/2022,04:48:40,0.003,0.0,0.0,0.0
04/05/2022,04:49:40,0.003,0.0,0.0,0.0
04/05/2022,04:50:40,0.003,0.0,0.0,0.0
04/05/2022,04:51:49,0.003,0.0,0.0,0.0
04/05/2022,04:53:40,0.003,0.0,0.0,0.0
04/05/2022,04:54:40,0.004,0.0,0.0,0.0
04/05/2022,04:55:40,0.004,0.0,0.0,0.0
04/05/2022,04:56:40,0.003,0.0,0.0,0.0
04/05/2022,04:57:40,0.005,0.0,0.0,0.0
04/05/2022,04:58:41,0.004,0.0,0.0,0.0
04/05/2022,04:59:40,0.005,0.0,0.0,0.0
04/05/2022,05:00:40,0.005,0.0,0.0,0.0
04/05/2022,05:01:40,0.005,0.0,0.0,0.0
04/05/2022,05:02:40,0.005,0.0,0.0,0.0
04/05/2022,05:03:48,0.006,0.0,0.0,0.0
04/05/2022,05:05:41,0.006,0.0,0.0,0.0
04/05/2022,05:06:40,0.006,0.0,0.0,0.0
04/05/2022,05:07:40,0.007,0.0,0.0,0.0
04/05/2022,05:08:40,0.007,0.0,0.0,0.0
04/05/2022,05:09:40,0.008,0.0,0.0,0.0
04/05/2022,05:10:40,0.007,0.0,0.001,0.001
04/05/2022,05:11:40,0.007,0.0,0.001,0.0
04/05/2022,05:12:48,0.009,0.0,0.001,0.0
04/05/2022,05:14:41,0.009,0.0,0.001,0.0
04/05/2022,05:15:40,0.009,0.0,0.001,0.0
04/05/2022,05:16:40,0.008,0.0,0.001,0.0
04/05/2022,05:17:40,0.008,0.0,0.002,0.001
04/05/2022,05:18:48,0.010,0.0,0.002,0.0
04/05/2022,05:19:42,0.010,0.0,0.002,0.0
04/05/2022,05:20:40,0.010,0.0,0.002,0.0
04/05/2022,05:21:40,0.010,0.0,0.002,0.0
04/05/2022,05:22:49,0.010,0.0,0.002,0.0
04/05/2022,05:24:40,0.011,0.0,0.003,0.001
04/05/2022,05:25:40,0.011,0.0,0.003,0.0
04/05/2022,05:26:40,0.011,0.0,0.003,0.0
04/05/2022,05:27:40,0.011,0.0,0.003,0.0
04/05/2022,05:28:40,0.011,0.0,0.003,0.0
04/05/2022,05:29:40,0.013,0.0,0.004,0.001
04/05/2022,05:30:40,0.011,0.0,0.004,0.0
04/05/2022,05:31:40,0.012,0.0,0.004,0.0
04/05/2022,05:32:48,0.014,0.0,0.004,0.0
04/05/2022,05:34:48,0.014,0.0,0.005,0.001
04/05/2022,05:36:41,0.014,0.0,0.005,0.0
04/05/2022,05:37:40,0.014,0.0,0.005,0.0
04/05/2022,05:38:40,0.014,0.0,0.006,0.001
04/05/2022,05:39:40,0.014,0.0,0.006,0.0
04/05/2022,05:40:41,0.014,0.0,0.006,0.0
04/05/2022,05:41:40,0.016,0.0,0.006,0.0
04/05/2022,05:42:49,0.016,0.0,0.007,0.001
04/05/2022,05:44:40,0.018,0.0,0.007,0.0
04/05/2022,05:45:40,0.019,0.0,0.007,0.0
04/05/2022,05:46:40,0.021,0.0,0.008,0.001
04/05/2022,05:47:40,0.020,0.0,0.008,0.0
04/05/2022,05:48:40,0.021,0.0,0.009,0.001
04/05/2022,05:49:41,0.023,0.0,0.009,0.0
04/05/2022,05:50:40,0.023,0.0,0.009,0.0
04/05/2022,05:51:40,0.024,0.0,0.01,0.001
04/05/2022,05:52:40,0.025,0.0,0.01,0.0
04/05/2022,05:53:42,0.026,0.0,0.011,0.001
04/05/2022,05:54:40,0.026,0.0,0.011,0.0
04/05/2022,05:55:41,0.027,0.0,0.011,0.0
04/05/2022,05:56:40,0.028,0.0,0.012,0.001
04/05/2022,05:57:40,0.028,0.0,0.012,0.0
04/05/2022,05:58:40,0.029,0.0,0.013,0.001
04/05/2022,05:59:40,0.030,0.0,0.013,0.0
04/05/2022,06:00:41,0.030,0.0,0.014,0.001
04/05/2022,06:01:40,0.031,0.0,0.014,0.0
04/05/2022,06:02:40,0.031,0.0,0.015,0.001
04/05/2022,06:03:40,0.032,0.0,0.015,0.0
04/05/2022,06:04:40,0.033,0.0,0.016,0.001
04/05/2022,06:05:41,0.034,0.0,0.016,0.0
04/05/2022,06:06:40,0.035,0.0,0.017,0.001
04/05/2022,06:07:40,0.035,0.0,0.018,0.001
04/05/2022,06:08:40,0.036,0.0,0.018,0.0
04/05/2022,06:09:40,0.038,0.0,0.019,0.001
04/05/2022,06:10:40,0.038,0.0,0.019,0.0
04/05/2022,06:11:40,0.039,0.0,0.02,0.001
04/05/2022,06:12:40,0.040,0.0,0.021,0.001
04/05/2022,06:13:51,0.042,0.0,0.022,0.001
04/05/2022,06:15:41,0.044,0.0,0.023,0.001
04/05/2022,06:16:40,0.045,0.0,0.024,0.001
04/05/2022,06:17:40,0.046,0.0,0.024,0.0
04/05/2022,06:18:40,0.048,0.0,0.025,0.001
04/05/2022,06:19:40,0.049,0.0,0.026,0.001
04/05/2022,06:20:41,0.051,0.0,0.027,0.001
04/05/2022,06:21:40,0.053,0.0,0.028,0.001
04/05/2022,06:22:40,0.055,0.0,0.028,0.0
04/05/2022,06:23:40,0.057,0.0,0.029,0.001
04/05/2022,06:24:40,0.058,0.0,0.03,0.001
04/05/2022,06:25:40,0.061,0.0,0.031,0.001
04/05/2022,06:26:40,0.062,0.0,0.032,0.001
04/05/2022,06:27:40,0.063,0.0,0.033,0.001
04/05/2022,06:28:40,0.061,0.0,0.035,0.002
04/05/2022,06:29:40,0.054,0.0,0.035,0.0
04/05/2022,06:30:40,0.058,0.0,0.036,0.001
04/05/2022,06:31:40,0.064,0.0,0.037,0.001
04/05/2022,06:32:41,0.063,0.0,0.038,0.001
04/05/2022,06:33:40,0.066,0.0,0.04,0.002
04/05/2022,06:34:40,0.069,0.0,0.041,0.001
04/05/2022,06:35:40,0.074,0.0,0.042,0.001
04/05/2022,06:36:40,0.074,0.0,0.043,0.001
04/05/2022,06:37:40,0.084,0.0,0.044,0.001
04/05/2022,06:38:40,0.086,0.0,0.046,0.002
04/05/2022,06:39:41,0.079,0.0,0.047,0.001
04/05/2022,06:40:40,0.066,0.0,0.048,0.001
04/05/2022,06:41:49,0.068,0.0,0.05,0.002
04/05/2022,06:42:41,0.080,0.0,0.051,0.001
04/05/2022,06:43:40,0.085,0.0,0.052,0.001
04/05/2022,06:44:49,0.078,0.0,0.054,0.002
04/05/2022,06:45:40,0.071,0.0,0.055,0.001
04/05/2022,06:46:41,0.075,0.0,0.056,0.001
04/05/2022,06:48:41,0.092,0.0,0.059,0.003
04/05/2022,06:49:40,0.090,0.0,0.06,0.001
04/05/2022,06:50:40,0.097,0.0,0.062,0.002
04/05/2022,06:51:41,0.099,0.0,0.063,0.001
04/05/2022,06:52:40,0.102,0.0,0.065,0.002
04/05/2022,06:53:40,0.097,0.0,0.067,0.002
04/05/2022,06:54:40,0.106,0.0,0.069,0.002
04/05/2022,06:55:40,0.111,0.0,0.07,0.001
04/05/2022,06:56:40,0.113,0.0,0.072,0.002
04/05/2022,06:57:41,0.119,0.0,0.074,0.002
04/05/2022,06:58:49,0.124,0.0,0.076,0.002
04/05/2022,06:59:40,0.126,0.0,0.078,0.002
04/05/2022,07:00:40,0.130,0.0,0.08,0.002
04/05/2022,07:01:41,0.132,0.0,0.083,0.003
04/05/2022,07:02:42,0.132,0.0,0.085,0.002
04/05/2022,07:03:40,0.130,0.0,0.087,0.002
04/05/2022,07:04:41,0.127,0.0,0.089,0.002
04/05/2022,07:05:40,0.127,0.0,0.091,0.002
04/05/2022,07:06:40,0.128,0.0,0.093,0.002
04/05/2022,07:07:41,0.130,0.0,0.095,0.002
04/05/2022,07:08:49,0.132,0.0,0.098,0.003
04/05/2022,07:10:41,0.130,0.0,0.102,0.004
04/05/2022,07:11:40,0.131,0.0,0.104,0.002
04/05/2022,07:12:41,0.132,0.0,0.106,0.002
04/05/2022,07:13:41,0.134,0.0,0.109,0.003
04/05/2022,07:14:40,0.135,0.0,0.111,0.002
04/05/2022,07:15:40,0.139,0.0,0.113,0.002
04/05/2022,07:16:40,0.141,0.0,0.115,0.002
04/05/2022,07:17:41,0.143,0.0,0.118,0.003
04/05/2022,07:18:40,0.144,0.0,0.12,0.002
04/05/2022,07:19:49,0.145,0.0,0.123,0.003
04/05/2022,07:21:41,0.146,0.0,0.127,0.004
04/05/2022,07:22:40,0.148,0.0,0.13,0.003
04/05/2022,07:23:31,0.152,0.0,0.132,0.002
04/05/2022,07:24:41,0.154,0.0,0.135,0.003
04/05/2022,07:25:41,0.158,0.0,0.138,0.003
04/05/2022,07:26:41,0.162,0.0,0.14,0.002
04/05/2022,07:27:40,0.167,0.0,0.143,0.003
04/05/2022,07:28:41,0.171,0.0,0.146,0.003
04/05/2022,07:29:49,0.175,0.0,0.149,0.003
04/05/2022,07:30:40,0.173,0.0,0.151,0.002
04/05/2022,07:31:40,0.173,0.0,0.154,0.003
04/05/2022,07:32:40,0.167,0.0,0.157,0.003
04/05/2022,07:33:40,0.163,0.0,0.16,0.003
04/05/2022,07:34:40,0.160,0.0,0.163,0.003
04/05/2022,07:35:41,0.151,0.0,0.165,0.002
04/05/2022,07:36:40,0.151,0.0,0.168,0.003
04/05/2022,07:37:40,0.128,0.0,0.17,0.002
04/05/2022,07:38:41,0.126,0.0,0.172,0.002
04/05/2022,07:39:40,0.147,0.0,0.174,0.002
04/05/2022,07:40:49,0.141,0.0,0.177,0.003
04/05/2022,07:42:41,0.121,0.0,0.181,0.004
04/05/2022,07:43:41,0.126,0.0,0.183,0.002
04/05/2022,07:44:40,0.118,0.0,0.185,0.002
04/05/2022,07:45:41,0.104,0.0,0.187,0.002
04/05/2022,07:46:40,0.113,0.0,0.189,0.002
04/05/2022,07:47:40,0.144,0.0,0.191,0.002
04/05/2022,07:48:42,0.173,0.0,0.194,0.003
04/05/2022,07:49:40,0.179,0.0,0.197,0.003
04/05/2022,07:50:49,0.181,0.0,0.2,0.003
04/05/2022,07:51:41,0.215,0.0,0.203,0.003
04/05/2022,07:52:41,0.239,1.0,0.207,0.004
04/05/2022,07:53:40,0.244,1.0,0.211,0.004
04/05/2022,07:54:40,0.244,1.0,0.215,0.004
04/05/2022,07:55:40,0.245,1.0,0.219,0.004
04/05/2022,07:56:48,0.240,1.0,0.224,0.005
04/05/2022,07:58:41,0.264,1.0,0.231,0.007
04/05/2022,07:59:40,0.267,1.0,0.236,0.005
04/05/2022,08:00:40,0.294,1.0,0.24,0.004
04/05/2022,08:01:40,0.307,1.0,0.245,0.005
04/05/2022,08:02:40,0.305,1.0,0.251,0.006
04/05/2022,08:03:40,0.299,1.0,0.256,0.005
04/05/2022,08:04:40,0.289,1.0,0.26,0.004
04/05/2022,08:05:40,0.283,1.0,0.265,0.005
04/05/2022,08:06:48,0.287,1.0,0.271,0.006
04/05/2022,08:08:49,0.287,1.0,0.28,0.009
04/05/2022,08:10:41,0.266,1.0,0.289,0.009
04/05/2022,08:11:41,0.267,1.0,0.293,0.004
04/05/2022,08:12:40,0.271,1.0,0.298,0.005
04/05/2022,08:13:40,0.292,1.0,0.302,0.004
04/05/2022,08:14:49,0.307,1.0,0.308,0.006
04/05/2022,08:16:41,0.311,1.0,0.317,0.009
04/05/2022,08:17:40,0.322,1.0,0.323,0.006
04/05/2022,08:18:41,0.325,1.0,0.328,0.005
04/05/2022,08:19:42,0.331,1.0,0.334,0.006
04/05/2022,08:20:40,0.337,1.0,0.339,0.005
04/05/2022,08:21:41,0.350,1.0,0.345,0.006
04/05/2022,08:22:41,0.366,1.0,0.351,0.006
04/05/2022,08:23:57,0.380,1.0,0.359,0.008
04/05/2022,08:25:41,0.393,1.0,0.37,0.011
04/05/2022,08:26:41,0.401,1.0,0.377,0.007
04/05/2022,08:27:49,0.403,1.0,0.384,0.007
04/05/2022,08:29:41,0.424,1.0,0.397,0.013
04/05/2022,08:30:41,0.433,1.0,0.404,0.007
04/05/2022,08:31:41,0.441,1.0,0.411,0.007
04/05/2022,08:32:40,0.443,1.0,0.419,0.008
04/05/2022,08:33:40,0.445,1.0,0.426,0.007
04/05/2022,08:34:40,0.445,1.0,0.434,0.008
04/05/2022,08:35:40,0.441,1.0,0.441,0.007
04/05/2022,08:36:40,0.435,1.0,0.448,0.007
04/05/2022,08:37:40,0.427,1.0,0.455,0.007
04/05/2022,08:38:40,0.423,1.0,0.463,0.008
04/05/2022,08:39:41,0.422,1.0,0.47,0.007
04/05/2022,08:40:41,0.425,1.0,0.477,0.007
04/05/2022,08:41:53,0.431,1.0,0.485,0.008
04/05/2022,08:43:41,0.455,1.0,0.499,0.014
04/05/2022,08:44:39,0.467,1.0,0.506,0.007
04/05/2022,08:45:41,0.476,1.0,0.514,0.008
04/05/2022,08:46:41,0.483,1.0,0.522,0.008
04/05/2022,08:47:41,0.487,1.0,0.53,0.008
04/05/2022,08:48:40,0.492,1.0,0.538,0.008
04/05/2022,08:49:40,0.496,1.0,0.546,0.008
04/05/2022,08:50:41,0.496,1.0,0.555,0.009
04/05/2022,08:51:41,0.484,1.0,0.563,0.008
04/05/2022,08:52:40,0.458,1.0,0.571,0.008
04/05/2022,08:53:40,0.417,1.0,0.578,0.007
04/05/2022,08:54:40,0.379,1.0,0.585,0.007
04/05/2022,08:55:49,0.345,1.0,0.592,0.007
04/05/2022,08:56:40,0.328,1.0,0.596,0.004
04/05/2022,08:57:40,0.310,1.0,0.602,0.006
04/05/2022,08:58:49,0.285,1.0,0.607,0.005
04/05/2022,09:00:49,0.237,1.0,0.616,0.009
04/05/2022,09:02:41,0.224,1.0,0.623,0.007
04/05/2022,09:03:41,0.230,1.0,0.627,0.004
04/05/2022,09:04:40,0.231,1.0,0.631,0.004
04/05/2022,09:06:49,0.249,1.0,0.639,0.008
04/05/2022,09:08:41,0.298,1.0,0.648,0.009
04/05/2022,09:09:41,0.280,1.0,0.652,0.004
04/05/2022,09:10:40,0.261,1.0,0.657,0.005
04/05/2022,09:11:41,0.230,1.0,0.661,0.004
04/05/2022,09:12:40,0.186,0.0,0.665,0.004
04/05/2022,09:13:40,0.166,0.0,0.667,0.002
04/05/2022,09:14:41,0.167,0.0,0.67,0.003
04/05/2022,09:15:49,0.179,0.0,0.674,0.004
04/05/2022,09:16:41,0.183,0.0,0.676,0.002
04/05/2022,09:17:40,0.182,0.0,0.679,0.003
04/05/2022,09:18:40,0.193,0.0,0.682,0.003
04/05/2022,09:19:40,0.232,1.0,0.686,0.004
04/05/2022,09:20:40,0.270,1.0,0.69,0.004
04/05/2022,09:21:41,0.284,1.0,0.695,0.005
04/05/2022,09:22:40,0.275,1.0,0.699,0.004
04/05/2022,09:23:40,0.278,1.0,0.704,0.005
04/05/2022,09:24:41,0.288,1.0,0.709,0.005
04/05/2022,09:25:41,0.289,1.0,0.713,0.004
04/05/2022,09:26:41,0.275,1.0,0.718,0.005
04/05/2022,09:27:40,0.253,1.0,0.723,0.005
04/05/2022,09:28:41,0.237,1.0,0.727,0.004
04/05/2022,09:29:40,0.223,1.0,0.73,0.003
04/05/2022,09:30:40,0.211,0.0,0.734,0.004
04/05/2022,09:31:41,0.204,0.0,0.737,0.003
04/05/2022,09:32:40,0.194,0.0,0.741,0.004
04/05/2022,09:33:41,0.191,0.0,0.744,0.003
04/05/2022,09:34:40,0.186,0.0,0.747,0.003
04/05/2022,09:35:41,0.182,0.0,0.75,0.003
04/05/2022,09:36:40,0.186,0.0,0.753,0.003
04/05/2022,09:37:40,0.197,0.0,0.756,0.003
04/05/2022,09:38:41,0.205,0.0,0.76,0.004
04/05/2022,09:39:41,0.217,0.0,0.763,0.003
04/05/2022,09:40:41,0.231,1.0,0.767,0.004
04/05/2022,09:41:40,0.251,1.0,0.771,0.004
04/05/2022,09:42:41,0.272,1.0,0.775,0.004
04/05/2022,09:43:49,0.295,1.0,0.781,0.006
04/05/2022,09:45:42,0.338,1.0,0.791,0.01
04/05/2022,09:46:41,0.358,1.0,0.796,0.005
04/05/2022,09:47:40,0.363,1.0,0.802,0.006
04/05/2022,09:48:41,0.361,1.0,0.808,0.006
04/05/2022,09:49:40,0.364,1.0,0.814,0.006
04/05/2022,09:50:40,0.377,1.0,0.821,0.007
04/05/2022,09:51:41,0.387,1.0,0.827,0.006
04/05/2022,09:52:40,0.397,1.0,0.833,0.006
04/05/2022,09:53:48,0.412,1.0,0.841,0.008
04/05/2022,09:54:40,0.423,1.0,0.847,0.006
04/05/2022,09:55:41,0.435,1.0,0.854,0.007
04/05/2022,09:56:40,0.435,1.0,0.862,0.008
04/05/2022,09:57:40,0.434,1.0,0.869,0.007
04/05/2022,09:58:41,0.438,1.0,0.876,0.007
04/05/2022,09:59:41,0.444,1.0,0.883,0.007
04/05/2022,10:00:41,0.452,1.0,0.891,0.008
04/05/2022,10:01:42,0.465,1.0,0.899,0.008
04/05/2022,10:02:40,0.475,1.0,0.906,0.007
04/05/2022,10:03:49,0.484,1.0,0.915,0.009
04/05/2022,10:04:41,0.493,1.0,0.922,0.007
04/05/2022,10:05:41,0.509,1.0,0.931,0.009
04/05/2022,10:06:49,0.517,1.0,0.941,0.01
04/05/2022,10:08:42,0.504,1.0,0.957,0.016
04/05/2022,10:09:40,0.492,1.0,0.965,0.008
04/05/2022,10:10:41,0.484,1.0,0.973,0.008
04/05/2022,10:11:41,0.477,1.0,0.981,0.008
04/05/2022,10:12:40,0.465,1.0,0.989,0.008
04/05/2022,10:13:40,0.454,1.0,0.996,0.007
04/05/2022,10:14:32,0.453,1.0,1.003,0.007
04/05/2022,10:15:41,0.460,1.0,1.012,0.009
04/05/2022,10:16:51,0.466,1.0,1.021,0.009
04/05/2022,10:18:41,0.466,1.0,1.035,0.014
04/05/2022,10:19:40,0.464,1.0,1.043,0.008
04/05/2022,10:20:40,0.455,1.0,1.05,0.007
04/05/2022,10:21:40,0.441,1.0,1.058,0.008
04/05/2022,10:22:40,0.432,1.0,1.065,0.007
04/05/2022,10:23:40,0.425,1.0,1.072,0.007
04/05/2022,10:24:40,0.415,1.0,1.079,0.007
04/05/2022,10:25:41,0.390,1.0,1.086,0.007
04/05/2022,10:26:40,0.363,1.0,1.092,0.006
04/05/2022,10:27:49,0.340,1.0,1.099,0.007
04/05/2022,10:29:42,0.341,1.0,1.109,0.01
04/05/2022,10:30:41,0.362,1.0,1.115,0.006
04/05/2022,10:31:40,0.388,1.0,1.121,0.006
04/05/2022,10:32:41,0.412,1.0,1.128,0.007
04/05/2022,10:33:41,0.425,1.0,1.135,0.007
04/05/2022,10:34:49,0.434,1.0,1.143,0.008
04/05/2022,10:36:41,0.458,1.0,1.157,0.014
04/05/2022,10:37:41,0.476,1.0,1.165,0.008
04/05/2022,10:38:40,0.545,1.0,1.173,0.008
04/05/2022,10:39:41,0.646,1.0,1.183,0.01
04/05/2022,10:40:49,0.742,2.0,1.197,0.014
04/05/2022,10:42:41,0.793,2.0,1.22,0.023
04/05/2022,10:43:40,0.792,2.0,1.233,0.013
04/05/2022,10:44:40,0.760,2.0,1.246,0.013
04/05/2022,10:45:41,0.704,2.0,1.259,0.013
04/05/2022,10:46:40,0.650,1.0,1.27,0.011
04/05/2022,10:47:43,0.608,1.0,1.281,0.011
04/05/2022,10:48:40,0.595,1.0,1.29,0.009
04/05/2022,10:49:40,0.607,1.0,1.3,0.01
04/05/2022,10:50:49,0.630,1.0,1.312,0.012